Gwinn, MI

1:36 AM EDT on August 24, 2016 (GMT -0400)
Sawyer International

Weather History for KSAW - March, 2013

Change the Weather History Date:

Friday, March 29, 2013

  Actual Average (KESC) Record (KESC)
Temperature  
Mean Temperature 30 °F -  
Max Temperature 44 °F 39 °F 61 °F (1963)
Min Temperature 17 °F 25 °F 5 °F (1970)
Degree Days  
Heating Degree Days 34    
Moisture  
Dew Point 17 °F    
Average Humidity 63    
Maximum Humidity 86    
Minimum Humidity 34    
Precipitation  
Precipitation 0.00 in - - ()
Sea Level Pressure  
Sea Level Pressure 30.22 in    
Wind  
Wind Speed 2 mph (East)    
Max Wind Speed 10 mph    
Max Gust Speed -    
Visibility 10 miles    
Events      
Averages and records for this station are not official NWS values.
T = Trace of Precipitation, MM = Missing Value Source: NWS Daily Summary

Daily Weather History Graph

Daily Weather History Graph

Search for Another Location

Airport or City:

Trip Planner

Search our weather history database for the weather conditions in past years. The results will help you decide how hot, cold, wet, or windy it might be!

Date:

Astronomy

Mar. 29, 2013 Rise Set
Actual Time 7:34 AM EDT 8:14 PM EDT
Civil Twilight 7:04 AM EDT 8:45 PM EDT
Nautical Twilight 6:28 AM EDT 9:21 PM EDT
Astronomical Twilight 5:50 AM EDT 9:58 PM EDT
Moon 11:26 PM EDT (3/29) 8:33 AM EDT (3/29)
Length of Visible Light 13h 40m
Length of Day
12h 40m
Waning Gibbous, 93% of the Moon is Illuminated
Mar 29
Waning Gibbous
Apr 3
Last Quarter
Apr 10
New
Apr 18
First Quarter
Apr 25
Full

Hourly Weather History & Observations

Time (EDT) Temp. Windchill Dew Point Humidity Pressure Visibility Wind Dir Wind Speed Gust Speed Precip Events Conditions
12:17 AM 24.6 °F - 18.1 °F 76% 30.25 in 10.0 mi Calm Calm - N/A   Clear
12:36 AM 21.7 °F - 16.3 °F 80% 30.25 in 10.0 mi Calm Calm - N/A   Clear
12:57 AM 23.7 °F - 18.0 °F 79% 30.25 in 10.0 mi Calm Calm - N/A   Clear
1:17 AM 23.9 °F - 17.6 °F 77% 30.25 in 10.0 mi Calm Calm - N/A   Clear
1:36 AM 21.2 °F - 15.8 °F 80% 30.25 in 10.0 mi Calm Calm - N/A   Clear
1:57 AM 21.4 °F - 16.9 °F 83% 30.25 in 10.0 mi Calm Calm - N/A   Clear
2:17 AM 22.5 °F - 17.6 °F 82% 30.25 in 10.0 mi Calm Calm - N/A   Clear
2:36 AM 20.3 °F - 15.4 °F 81% 30.25 in 10.0 mi Calm Calm - N/A   Clear
2:57 AM 20.8 °F - 15.6 °F 80% 30.25 in 10.0 mi Calm Calm - N/A   Clear
3:16 AM 21.7 °F - 15.8 °F 78% 30.25 in 10.0 mi Calm Calm - N/A   Clear
3:37 AM 21.0 °F - 15.8 °F 80% 30.25 in 10.0 mi Calm Calm - N/A   Clear
3:57 AM 20.7 °F - 15.8 °F 81% 30.25 in 10.0 mi Calm Calm - N/A   Clear
4:16 AM 21.2 °F - 15.8 °F 80% 30.24 in 10.0 mi Calm Calm - N/A   Clear
4:37 AM 20.3 °F - 15.4 °F 81% 30.25 in 10.0 mi Calm Calm - N/A   Clear
4:56 AM 19.6 °F - 15.1 °F 83% 30.25 in 10.0 mi Calm Calm - N/A   Clear
5:17 AM 20.3 °F - 15.4 °F 81% 30.25 in 10.0 mi Calm Calm - N/A   Clear
5:37 AM 21.0 °F - 15.4 °F 79% 30.24 in 10.0 mi Calm Calm - N/A   Clear
5:56 AM 19.9 °F - 14.5 °F 80% 30.24 in 10.0 mi Calm Calm - N/A   Clear
6:55 AM 17.6 °F - 14.0 °F 86% 30.25 in 10.0 mi Calm Calm - N/A   Clear
7:55 AM 17.6 °F - 14.0 °F 86% 30.26 in 10.0 mi Calm Calm - N/A   Clear
8:55 AM 23.0 °F - 15.8 °F 74% 30.26 in 10.0 mi Calm Calm - N/A   Clear
9:50 AM 26.6 °F - 17.6 °F 69% 30.26 in 10.0 mi Calm Calm - N/A   Clear
10:55 AM 39.2 °F 35.0 °F 17.6 °F 42% 30.25 in 10.0 mi NNW 5.8 mph - N/A   Clear
11:50 AM 41.0 °F 36.4 °F 15.8 °F 36% 30.25 in 10.0 mi NNW 6.9 mph - N/A   Clear
12:50 PM 42.8 °F 38.0 °F 15.8 °F 34% 30.24 in 10.0 mi WNW 8.1 mph - N/A   Clear
1:50 PM 42.8 °F - 15.8 °F 34% 30.22 in 10.0 mi Calm Calm - N/A   Clear
2:50 PM 44.6 °F 41.4 °F 17.6 °F 34% 30.21 in 10.0 mi NNE 5.8 mph - N/A   Clear
3:50 PM 44.6 °F 42.2 °F 17.6 °F 34% 30.19 in 10.0 mi ENE 4.6 mph - N/A   Clear
4:50 PM 44.6 °F 39.2 °F 19.4 °F 37% 30.18 in 10.0 mi NNE 10.4 mph - N/A   Clear
5:50 PM 42.8 °F 37.0 °F 19.4 °F 39% 30.17 in 10.0 mi NNE 10.4 mph - N/A   Clear
6:50 PM 42.8 °F 38.0 °F 17.6 °F 36% 30.17 in 10.0 mi NE 8.1 mph - N/A   Clear
7:50 PM 41.0 °F 38.0 °F 15.8 °F 36% 30.16 in 10.0 mi East 4.6 mph - N/A   Clear
8:50 PM 39.2 °F 37.0 °F 14.0 °F 36% 30.15 in 10.0 mi East 3.5 mph - N/A   Clear
9:45 PM 37.4 °F 33.8 °F 15.8 °F 41% 30.15 in 10.0 mi SE 4.6 mph - N/A   Clear
10:17 PM 36.5 °F 31.0 °F 16.0 °F 43% 30.15 in 10.0 mi SE 6.9 mph - N/A   Clear
10:36 PM 36.0 °F 30.3 °F 18.0 °F 48% 30.15 in 10.0 mi SE 6.9 mph - N/A   Clear
10:57 PM 34.2 °F 28.2 °F 18.5 °F 53% 30.15 in 10.0 mi SSE 6.9 mph - N/A   Clear
11:17 PM 33.3 °F 26.4 °F 19.0 °F 56% 30.14 in 10.0 mi SSE 8.1 mph - N/A   Clear
11:36 PM 32.4 °F 26.0 °F 18.9 °F 58% 30.14 in 10.0 mi South 6.9 mph - N/A   Clear
11:57 PM 32.0 °F 26.4 °F 20.1 °F 62% 30.14 in 10.0 mi South 5.8 mph - N/A   Clear